QPF
0.02 0.00 0.00 0.00 0.00 0.00 0.00 0.00 0.00 0.00 0.00 0.00 0.00 0.00 0.00 0.00 0.00 0.00 0.00 0.00 0.01 0.00 0.00 0.00 0.00 0.00 0.00 0.02 0.03 0.00 0.01 0.06 0.01 0.01 0.01 0.00 0.00 0.00 0.00 0.00 0.00 0.00 0.00 0.00
0.03 0.00 0.00 0.00 0.00 0.00 0.00 0.00 0.00 0.00 0.00 0.00 0.00 0.00 0.00 0.00 0.00 0.00 0.00 0.00 0.00 0.00 0.00 0.00 0.00 0.00 0.00 0.00 0.01 0.00 0.00 0.07 0.01 0.00 0.00 0.00 0.00 0.00 0.00 0.00 0.00 0.00 0.00 0.00
0.00 0.00 0.00 0.00 0.00 0.00 0.00 0.00 0.00 0.00 0.00 0.00 0.00 0.00 0.00 0.00 0.00 0.00 0.00 0.00 0.00 0.00 0.00 0.00 0.00 0.00 0.00 0.00 0.00 0.01 0.00 0.06 0.01 0.00 0.00 0.00 0.00 0.00 0.00 0.00 0.00 0.00 0.00 0.00
0.00 0.00 0.00 0.00 0.00 0.00 0.00 0.00 0.00 0.00 0.00 0.00 0.00 0.00 0.00 0.00 0.00 0.00 0.00 0.00 0.00 0.00 0.00 0.00 0.00 0.00 0.00 0.00 0.01 0.02 0.04 0.05 0.00 0.00 0.00 0.00 0.00 0.00 0.00 0.00 0.00 0.00 0.00 0.00
0.00 0.00 0.00 0.00 0.00 0.00 0.00 0.00 0.00 0.00 0.00 0.00 0.00 0.00 0.00 0.00 0.00 0.00 0.00 0.00 0.00 0.00 0.00 0.00 0.00 0.00 0.00 0.01 0.02 0.02 0.03 0.02 0.02 0.00 0.00 0.00 0.00 0.00 0.00 0.00 0.00 0.00 0.00 0.00
0.00 0.00 0.00 0.00 0.00 0.00 0.00 0.00 0.00 0.00 0.00 0.00 0.00 0.00 0.00 0.00 0.00 0.00 0.00 0.00 0.00 0.00 0.00 0.00 0.00 0.00 0.00 0.02 0.01 0.00 0.02 0.03 0.00 0.00 0.00 0.00 0.00 0.00 0.00 0.00 0.00 0.00 0.00 0.00
0.00 0.00 0.00 0.00 0.00 0.00 0.00 0.00 0.00 0.00 0.00 0.00 0.00 0.01 0.00 0.00 0.00 0.02 0.03 0.00 0.00 0.00 0.00 0.00 0.00 0.01 0.00 0.00 0.00 0.00 0.00 0.00 0.00 0.00 0.00 0.00 0.00 0.00 0.00 0.00 0.00 0.00 0.00 0.00
0.00 0.00 0.01 0.00 0.00 0.00 0.00 0.00 0.00 0.00 0.01 0.00 0.01 0.01 0.00 0.00 0.00 0.00 0.01 0.00 0.00 0.00 0.00 0.00 0.00 0.00 0.00 0.00 0.00 0.00 0.00 0.00 0.00 0.00 0.00 0.00 0.00 0.00 0.00 0.00 0.00 0.00 0.00 0.00
0.00 0.00 0.01 0.00 0.00 0.00 0.00 0.00 0.00 0.00 0.00 0.00 0.00 0.00 0.00 0.00 0.00 0.00 0.00 0.00 0.00 0.00 0.00 0.00 0.00 0.00 0.00 0.00 0.00 0.00 0.00 0.00 0.00 0.00 0.00 0.00 0.00 0.00 0.00 0.00 0.00 0.00 0.00 0.00
0.00 0.01 0.01 0.00 0.00 0.00 0.00 0.00 0.00 0.00 0.00 0.00 0.00 0.00 0.00 0.00 0.00 0.00 0.00 0.00 0.00 0.00 0.00 0.00 0.00 0.00 0.00 0.00 0.00 0.00 0.00 0.00 0.00 0.00 0.00 0.00 0.00 0.00 0.00 0.00 0.00 0.00 0.00 0.00
0.00 0.01 0.05 0.00 0.00 0.00 0.00 0.00 0.00 0.00 0.00 0.00 0.00 0.00 0.00 0.00 0.00 0.00 0.00 0.00 0.00 0.00 0.00 0.00 0.00 0.00 0.00 0.00 0.00 0.00 0.00 0.00 0.00 0.00 0.00 0.00 0.00 0.00 0.00 0.00 0.00 0.00 0.00 0.00
0.00 0.00 0.01 0.00 0.00 0.00 0.00 0.01 0.01 0.00 0.00 0.00 0.00 0.00 0.00 0.00 0.00 0.00 0.00 0.00 0.00 0.00 0.00 0.00 0.00 0.00 0.00 0.00 0.00 0.00 0.00 0.00 0.00 0.00 0.00 0.00 0.00 0.00 0.00 0.00 0.00 0.00 0.00 0.00
0.00 0.00 0.00 0.00 0.01 0.01 0.00 0.00 0.00 0.00 0.00 0.00 0.00 0.00 0.00 0.00 0.00 0.00 0.00 0.00 0.00 0.00 0.00 0.00 0.00 0.00 0.00 0.00 0.00 0.00 0.00 0.00 0.00 0.00 0.00 0.00 0.00 0.00 0.00 0.00 0.00 0.00 0.00 0.00
0.00 0.00 0.00 0.00 0.00 0.00 0.00 0.01 0.00 0.00 0.00 0.00 0.00 0.00 0.00 0.00 0.00 0.00 0.00 0.00 0.00 0.00 0.00 0.00 0.00 0.00 0.00 0.00 0.00 0.00 0.00 0.00 0.00 0.00 0.00 0.00 0.00 0.00 0.00 0.00 0.00 0.00 0.00 0.00
0.00 0.00 0.00 0.00 0.00 0.00 0.00 0.00 0.00 0.00 0.00 0.00 0.00 0.00 0.00 0.00 0.00 0.00 0.00 0.00 0.00 0.00 0.00 0.00 0.00 0.01 0.01 0.01 0.01 0.01 0.00 0.00 0.00 0.00 0.00 0.00 0.00 0.00 0.00 0.00 0.00 0.00 0.00 0.00
0.00 0.00 0.00 0.00 0.00 0.00 0.00 0.00 0.00 0.00 0.00 0.00 0.00 0.00 0.00 0.00 0.00 0.00 0.00 0.00 0.00 0.00 0.00 0.00 0.00 0.02 0.01 0.02 0.01 0.00 0.00 0.00 0.00 0.00 0.00 0.00 0.00 0.00 0.00 0.00 0.00 0.00 0.00 0.00
0.00 0.00 0.00 0.00 0.00 0.00 0.00 0.00 0.00 0.00 0.00 0.00 0.00 0.00 0.00 0.00 0.00 0.00 0.00 0.00 0.00 0.00 0.00 0.00 0.00 0.00 0.00 0.01 0.01 0.00 0.00 0.00 0.00 0.00 0.00 0.00 0.00 0.00 0.00 0.00 0.00 0.00 0.00 0.00
0.00 0.00 0.00 0.00 0.00 0.00 0.00 0.00 0.00 0.00 0.00 0.00 0.00 0.00 0.00 0.00 0.00 0.00 0.00 0.00 0.00 0.00 0.00 0.00 0.00 0.00 0.00 0.00 0.00 0.00 0.00 0.00 0.00 0.00 0.00 0.00 0.00 0.00 0.00 0.00 0.00 0.00 0.00 0.00
0.01 0.00 0.00 0.00 0.00 0.00 0.00 0.00 0.00 0.00 0.00 0.00 0.00 0.00 0.00 0.00 0.00 0.00 0.00 0.00 0.00 0.00 0.00 0.00 0.00 0.00 0.00 0.00 0.00 0.00 0.00 0.00 0.00 0.00 0.00 0.00 0.00 0.00 0.00 0.00 0.00 0.00 0.00 0.00
0.00 0.00 0.00 0.00 0.00 0.00 0.00 0.00 0.00 0.00 0.00 0.00 0.00 0.00 0.00 0.00 0.00 0.00 0.00 0.00 0.00 0.00 0.00 0.00 0.00 0.00 0.00 0.00 0.00 0.00 0.00 0.00 0.00 0.00 0.00 0.00 0.00 0.00 0.00 0.00 0.00 0.00 0.00 0.00
0.00 0.00 0.00 0.00 0.00 0.00 0.00 0.00 0.00 0.00 0.00 0.00 0.00 0.00 0.00 0.00 0.00 0.00 0.00 0.00 0.00 0.00 0.00 0.00 0.00 0.00 0.00 0.00 0.00 0.00 0.00 0.00 0.00 0.00 0.00 0.00 0.00 0.00 0.00 0.00 0.00 0.00 0.00 0.00
0.00 0.00 0.00 0.00 0.00 0.00 0.00 0.00 0.00 0.00 0.00 0.00 0.00 0.00 0.00 0.00 0.00 0.00 0.00 0.00 0.00 0.00 0.00 0.00 0.00 0.00 0.00 0.00 0.00 0.00 0.00 0.00 0.00 0.00 0.00 0.00 0.00 0.00 0.00 0.00 0.00 0.00 0.00 0.00
0.00 0.00 0.00 0.00 0.00 0.00 0.00 0.00 0.00 0.00 0.00 0.00 0.00 0.00 0.00 0.00 0.00 0.00 0.00 0.00 0.00 0.00 0.00 0.00 0.00 0.00 0.00 0.00 0.00 0.00 0.00 0.00 0.00 0.00 0.00 0.00 0.00 0.00 0.00 0.00 0.00 0.00 0.00 0.00
0.00 0.00 0.00 0.00 0.00 0.00 0.00 0.00 0.00 0.00 0.00 0.00 0.00 0.00 0.00 0.00 0.00 0.00 0.00 0.00 0.00 0.00 0.00 0.00 0.00 0.00 0.00 0.00 0.00 0.00 0.00 0.00 0.00 0.00 0.00 0.00 0.00 0.00 0.00 0.00 0.00 0.00 0.00 0.00
0.00 0.00 0.00 0.00 0.00 0.00 0.00 0.00 0.00 0.00 0.00 0.00 0.00 0.00 0.00 0.00 0.00 0.00 0.00 0.00 0.00 0.00 0.00 0.00 0.00 0.00 0.00 0.00 0.00 0.00 0.00 0.00 0.00 0.00 0.00 0.00 0.00 0.00 0.00 0.00 0.00 0.00 0.00 0.00
0.00 0.00 0.00 0.00 0.00 0.00 0.00 0.00 0.00 0.00 0.00 0.00 0.00 0.00 0.00 0.00 0.00 0.00 0.00 0.00 0.00 0.00 0.00 0.00 0.00 0.00 0.00 0.00 0.00 0.00 0.00 0.00 0.00 0.00 0.00 0.00 0.00 0.00 0.00 0.00 0.00 0.00 0.00 0.00
MSLP
1010.35 1010.64 1010.44 1010.10 1009.64 1009.38 1009.49 1009.60 1009.25 1008.46 1008.27 1009.05 1009.39 1009.63 1010.06 1010.13 1010.57 1011.00 1011.57 1011.84 1012.25 1012.58 1012.87 1013.25 1013.66 1014.61 1015.57 1016.20 1016.94 1017.87 1018.83 1019.76 1020.32 1020.93 1021.74 1022.48 1022.56 1022.61 1022.91 1022.70 1022.61 1022.64 1022.90 1023.12
1011.27 1011.42 1010.56 1009.91 1009.61 1009.46 1009.69 1009.70 1009.02 1008.21 1007.57 1008.38 1009.07 1009.26 1009.36 1009.87 1009.83 1010.43 1011.02 1011.66 1012.04 1012.63 1012.95 1013.34 1013.87 1014.84 1015.33 1016.23 1017.18 1017.86 1018.86 1019.69 1020.27 1020.55 1020.82 1021.06 1021.67 1022.16 1022.20 1022.03 1022.27 1022.50 1022.89 1023.31
1011.74 1011.45 1010.64 1010.00 1009.89 1009.61 1009.43 1009.54 1008.96 1008.65 1008.18 1008.24 1009.19 1009.45 1009.81 1009.66 1009.56 1009.82 1010.20 1010.69 1011.37 1012.09 1012.78 1013.28 1013.76 1014.75 1015.52 1016.24 1016.94 1017.86 1018.49 1018.99 1019.46 1019.83 1020.11 1020.65 1021.20 1021.75 1022.22 1022.26 1022.46 1022.70 1023.05 1023.22
1011.10 1011.01 1010.84 1010.38 1009.70 1009.32 1009.05 1008.85 1008.88 1009.04 1009.33 1009.38 1009.22 1010.29 1010.22 1009.87 1009.49 1009.58 1009.97 1010.39 1010.95 1011.67 1012.40 1012.98 1013.68 1014.72 1015.47 1016.27 1016.89 1017.31 1017.95 1018.40 1018.87 1019.24 1019.67 1020.30 1020.97 1021.52 1021.83 1021.93 1022.42 1022.77 1022.87 1023.05
1010.73 1010.60 1010.77 1010.25 1009.41 1009.03 1009.03 1008.75 1009.09 1009.42 1009.94 1010.03 1010.27 1010.79 1010.09 1009.66 1009.89 1009.69 1009.80 1009.92 1010.26 1010.82 1011.66 1012.60 1013.48 1014.06 1014.99 1015.88 1016.75 1017.09 1017.87 1017.94 1018.26 1018.82 1019.13 1019.78 1020.60 1020.96 1021.28 1021.91 1022.46 1022.78 1022.75 1022.90
1010.25 1010.30 1010.48 1009.49 1008.87 1008.59 1008.78 1008.91 1009.47 1010.35 1011.19 1011.47 1010.63 1010.63 1010.23 1009.37 1008.57 1008.99 1009.16 1009.88 1009.97 1010.65 1011.28 1012.17 1013.15 1014.08 1014.88 1015.52 1016.29 1016.80 1017.25 1017.66 1017.98 1018.33 1018.72 1019.28 1020.19 1020.92 1021.37 1021.90 1022.43 1022.70 1023.05 1023.67
1010.12 1009.94 1009.57 1009.71 1009.51 1009.04 1009.37 1009.90 1011.24 1012.34 1013.00 1012.75 1011.70 1011.15 1009.58 1008.23 1008.08 1008.25 1008.85 1009.60 1009.95 1010.42 1011.32 1012.39 1013.36 1014.11 1014.78 1015.33 1015.71 1016.24 1017.07 1017.53 1017.68 1018.14 1018.76 1019.19 1019.89 1020.36 1021.04 1021.68 1022.32 1022.75 1023.14 1023.66
1010.06 1010.78 1010.34 1009.59 1010.00 1009.74 1009.33 1010.29 1011.83 1013.14 1014.15 1013.49 1011.77 1010.56 1008.77 1006.96 1007.76 1008.11 1008.37 1009.41 1010.29 1010.77 1011.34 1012.16 1012.77 1013.58 1014.25 1014.90 1015.55 1016.11 1016.79 1017.22 1017.53 1018.10 1018.77 1019.34 1019.96 1020.51 1021.08 1021.51 1021.88 1022.31 1022.61 1022.87
1009.98 1010.69 1010.67 1009.79 1009.61 1009.49 1009.20 1009.82 1010.23 1012.42 1014.24 1014.12 1012.34 1010.11 1008.71 1007.91 1008.10 1008.52 1009.24 1010.19 1010.66 1011.05 1011.51 1012.08 1012.72 1013.26 1014.04 1014.74 1015.55 1015.90 1016.55 1017.11 1017.59 1018.17 1018.84 1019.53 1020.11 1020.69 1021.25 1021.66 1022.02 1022.30 1022.91 1023.05
1009.97 1010.94 1010.86 1009.76 1009.76 1008.65 1008.66 1009.52 1010.37 1011.70 1013.85 1014.06 1012.32 1010.64 1009.52 1008.96 1008.90 1009.30 1009.90 1010.22 1010.63 1011.22 1011.74 1012.32 1012.91 1013.49 1014.13 1014.70 1015.41 1015.99 1016.66 1017.12 1017.68 1018.34 1019.02 1019.72 1020.31 1020.85 1021.37 1021.77 1022.28 1023.04 1022.90 1023.73
1009.55 1010.46 1011.64 1011.27 1010.35 1009.00 1008.94 1009.29 1010.16 1011.31 1012.80 1013.72 1013.13 1011.55 1009.32 1008.91 1008.73 1009.11 1009.52 1009.77 1010.27 1010.94 1011.64 1012.27 1012.83 1013.31 1013.87 1014.41 1015.10 1015.87 1016.67 1017.34 1017.98 1018.59 1019.30 1020.01 1020.62 1021.12 1021.61 1022.14 1022.35 1022.91 1023.39 1023.49
1008.84 1010.29 1011.47 1010.44 1009.26 1008.28 1008.31 1008.93 1010.07 1011.65 1012.91 1013.39 1013.10 1011.68 1009.37 1008.69 1008.50 1008.49 1008.87 1009.34 1009.73 1010.22 1010.91 1011.63 1012.25 1012.93 1013.60 1014.23 1014.86 1015.53 1016.29 1017.11 1017.84 1018.58 1019.35 1020.11 1020.64 1021.15 1021.66 1022.14 1022.62 1022.81 1023.03 1023.14
1008.29 1009.08 1010.55 1010.42 1009.60 1008.44 1008.38 1008.53 1009.25 1010.42 1011.89 1012.80 1013.03 1011.49 1009.31 1008.42 1008.22 1008.22 1008.39 1008.70 1009.39 1009.92 1010.41 1010.96 1011.61 1012.24 1012.97 1013.75 1014.35 1014.99 1015.83 1016.71 1017.48 1018.34 1019.19 1019.95 1020.55 1021.08 1021.77 1022.08 1022.75 1022.91 1022.95 1023.26
1007.91 1008.92 1009.72 1010.06 1009.48 1008.86 1008.69 1008.68 1008.95 1009.95 1011.67 1012.20 1012.01 1011.00 1009.42 1008.82 1008.27 1008.20 1008.11 1008.41 1008.91 1009.38 1009.72 1010.18 1010.77 1011.33 1011.91 1012.78 1013.66 1014.65 1015.22 1016.09 1017.23 1018.26 1019.10 1019.96 1020.55 1021.22 1021.52 1022.45 1022.80 1023.17 1023.10 1023.40
1008.41 1009.48 1009.85 1009.90 1009.57 1009.31 1008.98 1008.98 1009.07 1009.59 1010.12 1011.05 1010.83 1010.50 1009.15 1008.90 1008.62 1008.43 1008.55 1008.76 1009.03 1009.57 1009.95 1010.06 1010.35 1011.34 1012.11 1012.91 1013.88 1014.74 1015.44 1016.20 1017.05 1018.03 1019.11 1019.95 1020.64 1021.18 1021.66 1022.16 1022.90 1022.85 1022.99 1023.16
1008.87 1009.94 1010.49 1010.99 1010.52 1010.08 1009.76 1009.20 1009.01 1009.13 1009.27 1009.57 1009.84 1009.68 1008.74 1008.70 1008.71 1008.94 1009.22 1009.27 1009.64 1009.96 1010.21 1010.34 1010.66 1011.40 1012.17 1012.86 1013.82 1014.53 1015.41 1016.22 1016.99 1017.95 1018.92 1019.61 1020.20 1020.93 1022.07 1022.59 1022.55 1022.85 1022.89 1022.92
1009.54 1010.66 1011.98 1012.70 1012.25 1011.36 1010.70 1009.29 1008.92 1008.91 1008.96 1009.30 1009.84 1010.04 1009.27 1009.62 1009.86 1010.01 1010.03 1009.96 1010.15 1010.38 1010.53 1010.90 1011.33 1011.80 1012.22 1012.84 1013.41 1014.83 1015.82 1016.43 1017.34 1018.19 1018.81 1019.49 1020.26 1021.14 1021.59 1022.24 1022.73 1022.77 1022.93 1022.95
1009.97 1011.59 1013.04 1014.50 1014.18 1012.79 1010.34 1008.90 1008.46 1008.94 1009.54 1009.62 1009.97 1010.28 1010.25 1010.42 1010.73 1010.55 1010.68 1010.93 1011.12 1011.24 1011.45 1011.69 1011.82 1012.09 1012.82 1013.36 1014.28 1015.38 1016.37 1017.31 1018.20 1019.07 1019.75 1020.33 1021.10 1021.58 1022.24 1022.42 1022.59 1022.96 1022.89 1022.72
1010.20 1012.32 1014.57 1015.53 1015.09 1012.99 1010.47 1009.28 1008.79 1008.99 1010.59 1010.37 1010.54 1010.81 1010.88 1010.90 1011.08 1011.91 1011.75 1011.61 1011.82 1011.97 1012.23 1012.60 1012.96 1013.54 1014.22 1014.98 1015.71 1016.38 1017.40 1018.14 1018.79 1019.64 1020.26 1021.12 1021.70 1022.12 1022.44 1022.76 1022.82 1022.77 1022.64 1022.44
1011.36 1012.47 1014.67 1016.17 1015.71 1013.89 1011.02 1009.57 1009.02 1009.18 1010.93 1011.08 1011.12 1011.49 1011.62 1011.64 1012.66 1013.13 1012.66 1012.55 1013.11 1013.64 1014.24 1014.70 1015.33 1015.64 1015.96 1017.05 1017.24 1017.85 1018.93 1019.51 1020.03 1020.79 1021.56 1021.73 1022.09 1022.38 1022.43 1022.56 1022.42 1022.00 1021.88 1021.76
1013.14 1014.09 1015.34 1015.76 1015.15 1013.06 1010.70 1009.72 1009.59 1010.42 1012.12 1011.48 1011.69 1012.02 1012.29 1012.86 1013.25 1013.20 1013.26 1013.77 1014.61 1015.59 1016.29 1016.78 1017.12 1017.73 1018.48 1018.69 1018.60 1019.27 1019.75 1020.21 1020.98 1021.39 1021.87 1021.94 1021.83 1021.94 1021.93 1021.82 1021.81 1021.77 1021.74 1021.65
1012.61 1013.96 1014.93 1015.20 1014.41 1012.63 1010.23 1010.14 1010.58 1011.34 1011.63 1011.93 1012.27 1012.70 1013.08 1013.46 1013.76 1014.04 1014.79 1015.79 1016.29 1017.05 1017.82 1018.34 1018.52 1019.24 1019.65 1019.72 1019.73 1020.34 1020.70 1021.02 1020.97 1021.24 1021.33 1021.45 1021.64 1021.97 1021.94 1021.73 1021.53 1021.48 1021.43 1021.52
1011.18 1011.32 1012.26 1012.48 1011.93 1010.96 1010.12 1010.57 1011.03 1011.37 1012.19 1012.76 1013.05 1013.39 1013.70 1014.39 1014.96 1015.84 1016.81 1017.41 1018.10 1018.63 1018.96 1019.43 1019.54 1019.91 1020.12 1020.18 1020.19 1020.30 1020.69 1020.82 1021.17 1021.63 1022.01 1022.10 1021.95 1021.64 1021.48 1021.48 1021.55 1021.49 1021.43 1021.33
1009.65 1009.65 1010.58 1011.09 1010.99 1010.91 1011.42 1011.36 1011.46 1012.00 1012.90 1013.63 1014.15 1014.41 1014.80 1015.91 1016.67 1017.54 1018.21 1018.90 1019.30 1019.71 1019.93 1020.03 1020.11 1020.32 1020.67 1020.83 1020.93 1021.01 1021.18 1021.31 1021.59 1021.84 1021.99 1021.94 1021.91 1021.71 1021.49 1021.37 1021.31 1021.37 1021.28 1021.08
1009.34 1009.43 1010.22 1011.02 1011.82 1011.86 1012.57 1012.53 1012.85 1013.35 1014.02 1014.78 1015.53 1016.11 1016.78 1017.14 1018.41 1018.99 1019.57 1019.97 1020.17 1020.34 1020.64 1020.90 1021.09 1021.26 1021.33 1021.37 1021.41 1021.39 1021.52 1021.58 1021.74 1021.89 1021.99 1021.99 1021.86 1021.75 1021.48 1021.20 1021.07 1021.03 1020.69 1020.68
1009.26 1009.60 1010.35 1011.40 1011.58 1012.01 1013.93 1013.96 1014.14 1014.67 1015.53 1016.26 1016.81 1017.76 1018.45 1018.82 1019.51 1020.02 1020.56 1021.01 1021.25 1021.44 1021.53 1021.58 1021.68 1021.71 1021.80 1021.84 1021.81 1021.66 1021.51 1021.48 1021.66 1021.78 1021.72 1021.73 1021.66 1021.47 1021.23 1020.90 1020.52 1020.24 1020.00 1019.80
Thickness
5639 5630 5624 5641 5655 5662 5658 5648 5652 5671 5682 5669 5668 5672 5670 5678 5676 5673 5672 5671 5670 5673 5674 5674 5671 5670 5662 5655 5650 5642 5634 5627 5620 5614 5604 5596 5596 5596 5592 5592 5591 5588 5583 5578
5625 5615 5639 5654 5660 5657 5651 5646 5653 5677 5695 5678 5671 5668 5678 5677 5680 5679 5675 5672 5671 5669 5670 5670 5667 5659 5660 5654 5645 5639 5627 5619 5615 5612 5610 5607 5600 5596 5594 5592 5589 5582 5575 5567
5619 5633 5651 5652 5649 5650 5650 5646 5658 5660 5684 5690 5670 5659 5663 5678 5686 5685 5685 5684 5681 5674 5670 5668 5667 5657 5654 5649 5644 5636 5630 5623 5620 5617 5613 5607 5601 5596 5590 5586 5582 5574 5567 5563
5632 5642 5642 5640 5646 5656 5642 5671 5668 5666 5661 5645 5675 5628 5660 5668 5676 5684 5682 5681 5678 5674 5674 5671 5664 5653 5653 5646 5642 5639 5632 5628 5622 5619 5614 5607 5600 5593 5588 5583 5576 5567 5562 5556
5632 5638 5633 5633 5649 5665 5652 5671 5669 5667 5659 5655 5657 5632 5646 5672 5665 5674 5674 5677 5678 5679 5675 5672 5666 5661 5652 5647 5640 5636 5629 5629 5626 5621 5617 5607 5599 5592 5585 5576 5569 5562 5557 5550
5641 5651 5644 5654 5666 5671 5672 5671 5667 5655 5643 5624 5660 5643 5638 5660 5675 5680 5682 5677 5681 5674 5674 5670 5665 5659 5652 5648 5641 5635 5631 5628 5623 5618 5613 5603 5593 5584 5578 5570 5561 5552 5543 5533
5640 5647 5655 5656 5649 5664 5661 5648 5613 5604 5598 5607 5650 5638 5648 5676 5684 5685 5683 5682 5681 5675 5668 5660 5655 5652 5649 5644 5640 5635 5629 5623 5619 5611 5603 5597 5587 5579 5569 5558 5547 5538 5529 5521
5625 5612 5640 5661 5645 5641 5654 5644 5609 5594 5588 5605 5645 5636 5656 5690 5687 5685 5688 5682 5677 5671 5665 5660 5659 5654 5649 5644 5638 5632 5626 5621 5615 5606 5597 5587 5577 5568 5558 5550 5543 5533 5524 5516
5627 5623 5642 5654 5652 5658 5655 5640 5658 5619 5607 5591 5623 5657 5670 5680 5675 5674 5667 5668 5666 5663 5664 5661 5657 5655 5649 5643 5635 5629 5621 5613 5606 5598 5588 5577 5568 5558 5546 5539 5531 5523 5511 5503
5633 5617 5634 5649 5652 5664 5661 5661 5629 5622 5605 5605 5631 5641 5635 5658 5662 5662 5662 5660 5661 5663 5661 5657 5652 5647 5642 5635 5627 5620 5611 5603 5597 5589 5579 5568 5559 5547 5536 5528 5518 5506 5500 5486
5636 5630 5617 5626 5630 5639 5645 5641 5648 5642 5623 5601 5587 5615 5665 5661 5665 5661 5659 5666 5664 5660 5655 5651 5647 5644 5639 5632 5623 5613 5602 5592 5583 5576 5566 5555 5545 5534 5524 5514 5505 5494 5484 5476
5645 5624 5599 5625 5650 5665 5663 5651 5641 5598 5620 5612 5589 5608 5668 5670 5666 5667 5664 5664 5663 5663 5656 5650 5644 5639 5633 5627 5619 5608 5596 5583 5574 5564 5553 5542 5532 5521 5511 5501 5491 5481 5474 5467
5654 5632 5598 5614 5637 5656 5651 5657 5655 5645 5618 5615 5580 5604 5662 5669 5670 5666 5664 5666 5660 5656 5652 5648 5642 5635 5628 5620 5612 5602 5589 5577 5566 5555 5542 5529 5517 5507 5496 5488 5477 5467 5461 5452
5653 5641 5622 5601 5625 5643 5637 5642 5651 5638 5590 5608 5606 5626 5646 5652 5655 5656 5663 5665 5657 5656 5652 5645 5639 5632 5625 5614 5602 5592 5583 5573 5558 5544 5530 5518 5506 5495 5486 5472 5463 5452 5446 5436
5642 5623 5638 5636 5641 5643 5643 5639 5641 5637 5630 5608 5622 5627 5646 5648 5647 5647 5650 5654 5655 5648 5644 5637 5632 5621 5612 5602 5592 5582 5572 5559 5548 5535 5519 5505 5492 5481 5471 5460 5447 5440 5432 5424
5641 5617 5630 5623 5633 5629 5624 5636 5636 5637 5642 5641 5638 5633 5655 5650 5648 5644 5645 5646 5640 5634 5631 5629 5621 5614 5606 5598 5586 5575 5562 5549 5537 5521 5506 5494 5484 5471 5454 5443 5436 5426 5419 5412
5625 5615 5593 5597 5603 5608 5587 5622 5626 5633 5640 5636 5621 5626 5636 5632 5632 5631 5634 5634 5633 5630 5625 5618 5612 5602 5596 5586 5578 5560 5547 5536 5521 5507 5496 5483 5470 5456 5445 5433 5421 5413 5404 5395
5615 5609 5581 5571 5573 5561 5613 5640 5641 5629 5625 5625 5624 5623 5626 5627 5625 5626 5623 5617 5613 5610 5605 5602 5598 5594 5581 5572 5559 5545 5531 5516 5502 5487 5475 5463 5450 5439 5426 5417 5409 5397 5388 5379
5620 5592 5572 5561 5560 5591 5613 5627 5630 5619 5606 5619 5616 5618 5618 5619 5616 5604 5608 5607 5602 5599 5593 5586 5579 5570 5559 5547 5536 5524 5509 5497 5485 5471 5459 5445 5434 5423 5412 5401 5392 5383 5374 5364
5607 5599 5569 5556 5555 5549 5595 5623 5632 5628 5583 5613 5612 5607 5606 5604 5577 5582 5593 5593 5584 5575 5565 5558 5547 5539 5532 5516 5509 5498 5484 5473 5463 5450 5437 5428 5417 5407 5398 5388 5379 5372 5362 5354
5560 5563 5553 5530 5533 5567 5611 5622 5626 5583 5577 5607 5604 5600 5596 5586 5581 5584 5584 5574 5564 5548 5537 5526 5517 5508 5498 5491 5487 5475 5466 5455 5442 5432 5421 5414 5406 5396 5386 5377 5367 5358 5348 5338
5572 5557 5536 5549 5542 5559 5615 5615 5594 5592 5601 5597 5594 5589 5585 5580 5574 5569 5561 5544 5537 5525 5512 5502 5495 5484 5477 5472 5465 5454 5445 5436 5430 5420 5411 5401 5390 5378 5369 5361 5352 5342 5333 5323
5578 5586 5573 5577 5572 5598 5610 5600 5600 5598 5589 5584 5581 5577 5573 5564 5557 5545 5527 5519 5508 5499 5492 5484 5478 5470 5463 5456 5451 5444 5433 5425 5414 5401 5389 5379 5371 5364 5355 5346 5336 5327 5316 5307
5609 5613 5592 5591 5601 5600 5591 5593 5593 5589 5579 5570 5563 5560 5555 5537 5527 5514 5503 5493 5486 5480 5475 5470 5463 5455 5446 5438 5432 5424 5414 5406 5395 5384 5374 5364 5355 5347 5339 5330 5320 5310 5299 5291
5596 5603 5597 5590 5582 5583 5576 5576 5573 5568 5562 5549 5540 5534 5524 5515 5500 5490 5481 5475 5471 5465 5457 5449 5441 5434 5427 5420 5413 5405 5396 5388 5378 5368 5359 5348 5339 5330 5323 5316 5307 5298 5291 5282
5598 5594 5573 5563 5580 5577 5557 5556 5553 5545 5536 5527 5518 5505 5497 5491 5480 5472 5463 5456 5449 5442 5436 5429 5423 5417 5409 5402 5395 5389 5382 5374 5363 5353 5343 5331 5322 5315 5308 5303 5301 5292 5283 5276